Вернуться в каталог

YUNYAO-1 35

АктивенПогодаSSO
NORAD 61902·PAYLOAD·🇨🇳 China
Это название спутника еще не подтверждено официальными источниками.

Запущен Nov 11, 2024 с Jiuquan Satellite Launch Center

Loading…

Ближайшие Пролёты (ближайшие 24 часа)

TLE

СвежийSource: Space-Track

Эпоха: Sep 14, 2026, 15:41 UTC

1 61902U 24205J   26257.65380063  .00005268  00000-0  30058-3 0  9994
2 61902  97.4061 325.4703 0012177 214.0840 145.9611 15.13113214101717

Отслеживайте YUNYAO-1 35 в реальном времени с AllMySat

Download on the App Store